Location: Christianberg
(48.9086°N, 14.0209°E)
Time: 21:09:29
(UTC+00:00)

Cosmos 921 Rocket - Pass Details

Date: 20 June 2021
Orbit: 571 x 632 km, 75.8° (Epoch: 02 August)

Event Time Altitude Azimuth Distance (km) Brightness Sun altitude
Exits shadow 01:32:39 13° 234° (SW) 1,685 4.7 -10.6°
Maximum altitude 01:35:56 35° 298° (WNW) 939 3.9 -10.3°
Drops below altitude 10° 01:39:48 10° 5° (N) 1,889 6.6 -9.9°
Sets 01:42:10 0° 14° (NNE) 2,791 7.9 -9.7°
